Time,TemperatureF,DewpointF,PressureIn,WindDirection,WindDirectionDegrees,WindSpeedMPH,WindSpeedGustMPH,Humidity,HourlyPrecipIn,Conditions,Clouds,dailyrainin,SoftwareType,DateUTC
2013-07-10 00:01:00,56.0,50.0,-100.00,South,190,1.0,1.0,79,-99.99,,,-99.99,,2013-07-10 06:01:00,
2013-07-10 00:11:00,56.0,50.0,-100.00,South,190,1.0,1.0,79,-99.99,,,-99.99,,2013-07-10 06:11:00,
2013-07-10 00:32:00,55.0,50.0,-100.00,SSE,150,1.0,2.0,80,-99.99,,,-99.99,,2013-07-10 06:32:00,
2013-07-10 00:42:00,55.0,50.0,-100.00,SSE,150,1.0,2.0,80,-99.99,,,-99.99,,2013-07-10 06:42:00,
2013-07-10 00:52:00,55.0,50.0,-100.00,SE,130,0.0,1.0,81,-99.99,,,-99.99,,2013-07-10 06:52:00,
2013-07-10 01:01:00,55.0,50.0,-100.00,East,85,0.0,1.0,81,-99.99,,,-99.99,,2013-07-10 07:01:00,
2013-07-10 01:11:00,55.0,50.0,-100.00,East,85,0.0,1.0,81,-99.99,,,-99.99,,2013-07-10 07:11:00,
2013-07-10 01:43:00,55.0,50.0,-100.00,East,95,1.0,2.0,81,-99.99,,,-99.99,,2013-07-10 07:43:00,
2013-07-10 01:53:00,55.0,49.0,-100.00,South,185,1.0,4.0,81,-99.99,,,-99.99,,2013-07-10 07:53:00,
2013-07-10 02:01:00,55.0,49.0,-100.00,SSW,205,1.0,4.0,81,-99.99,,,-99.99,,2013-07-10 08:01:00,
2013-07-10 02:11:00,55.0,49.0,-100.00,SSW,205,1.0,4.0,81,-99.99,,,-99.99,,2013-07-10 08:11:00,
2013-07-10 02:42:00,55.0,49.0,-100.00,SSE,165,2.0,4.0,82,-99.99,,,-99.99,,2013-07-10 08:42:00,
2013-07-10 02:53:00,55.0,49.0,-100.00,SSE,150,2.0,2.0,82,-99.99,,,-99.99,,2013-07-10 08:53:00,
2013-07-10 03:02:00,54.0,49.0,-100.00,SE,135,1.0,2.0,82,-99.99,,,-99.99,,2013-07-10 09:02:00,
2013-07-10 03:12:00,54.0,49.0,-100.00,SE,135,1.0,2.0,82,-99.99,,,-99.99,,2013-07-10 09:12:00,
2013-07-10 03:42:00,53.0,48.0,-100.00,South,190,2.0,4.0,82,-99.99,,,-99.99,,2013-07-10 09:42:00,
2013-07-10 03:53:00,53.0,48.0,-100.00,South,170,1.0,2.0,82,-99.99,,,-99.99,,2013-07-10 09:53:00,
2013-07-10 04:01:00,53.0,48.0,-100.00,SE,130,0.0,2.0,82,-99.99,,,-99.99,,2013-07-10 10:01:00,
2013-07-10 04:13:00,53.0,48.0,-100.00,SE,130,0.0,2.0,82,-99.99,,,-99.99,,2013-07-10 10:13:00,
2013-07-10 04:50:00,-999.0,-99.9,-100.00,South,185,0.0,2.0,-999,-99.99,,,-99.99,,2013-07-10 10:50:00,
2013-07-10 05:00:00,-999.0,-99.9,-100.00,South,180,1.0,2.0,-999,-99.99,,,-99.99,,2013-07-10 11:00:00,
2013-07-10 05:11:00,54.0,49.0,-100.00,South,185,3.0,5.0,81,-99.99,,,-99.99,,2013-07-10 11:11:00,
2013-07-10 05:43:00,53.0,47.0,-100.00,SSE,160,1.0,4.0,81,-99.99,,,-99.99,,2013-07-10 11:43:00,
2013-07-10 05:52:00,53.0,47.0,-100.00,South,190,1.0,3.0,81,-99.99,,,-99.99,,2013-07-10 11:52:00,
2013-07-10 06:01:00,53.0,47.0,-100.00,South,185,2.0,4.0,81,-99.99,,,-99.99,,2013-07-10 12:01:00,
2013-07-10 06:11:00,53.0,47.0,-100.00,South,185,2.0,4.0,81,-99.99,,,-99.99,,2013-07-10 12:11:00,
2013-07-10 06:43:00,56.0,50.0,-100.00,SSW,205,7.0,11.0,79,-99.99,,,-99.99,,2013-07-10 12:43:00,
2013-07-10 06:53:00,58.0,51.0,-100.00,SSW,200,7.0,9.0,77,-99.99,,,-99.99,,2013-07-10 12:53:00,
2013-07-10 07:01:00,59.0,51.0,-100.00,SSW,195,7.0,9.0,76,-99.99,,,-99.99,,2013-07-10 13:01:00,
2013-07-10 07:11:00,59.0,51.0,-100.00,SSW,195,7.0,9.0,76,-99.99,,,-99.99,,2013-07-10 13:11:00,
2013-07-10 07:43:00,62.0,52.0,-100.00,South,190,7.0,12.0,70,-99.99,,,-99.99,,2013-07-10 13:43:00,
2013-07-10 07:52:00,63.0,52.0,-100.00,SSW,210,9.0,12.0,67,-99.99,,,-99.99,,2013-07-10 13:52:00,
2013-07-10 08:01:00,63.0,52.0,-100.00,SSW,195,8.0,11.0,66,-99.99,,,-99.99,,2013-07-10 14:01:00,
2013-07-10 08:11:00,63.0,52.0,-100.00,SSW,195,8.0,11.0,66,-99.99,,,-99.99,,2013-07-10 14:11:00,
2013-07-10 08:43:00,65.0,51.0,-100.00,SSW,205,11.0,14.0,60,-99.99,,,-99.99,,2013-07-10 14:43:00,
2013-07-10 08:53:00,66.0,51.0,-100.00,SSW,200,10.0,14.0,58,-99.99,,,-99.99,,2013-07-10 14:53:00,
2013-07-10 09:01:00,67.0,51.0,-100.00,SSW,195,11.0,14.0,57,-99.99,,,-99.99,,2013-07-10 15:01:00,
2013-07-10 09:11:00,67.0,51.0,-100.00,SSW,195,11.0,14.0,57,-99.99,,,-99.99,,2013-07-10 15:11:00,
2013-07-10 09:42:00,68.0,52.0,-100.00,SSW,210,7.0,14.0,55,-99.99,,,-99.99,,2013-07-10 15:42:00,
2013-07-10 09:52:00,69.0,51.0,-100.00,SSW,200,6.0,11.0,52,-99.99,,,-99.99,,2013-07-10 15:52:00,
2013-07-10 10:01:00,70.0,51.0,-100.00,SSW,195,7.0,11.0,50,-99.99,,,-99.99,,2013-07-10 16:01:00,
2013-07-10 15:01:00,79.0,50.0,-100.00,ESE,120,8.0,11.0,36,-99.99,,,-99.99,,2013-07-10 21:01:00,
2013-07-10 15:11:00,79.0,50.0,-100.00,ESE,120,8.0,11.0,36,-99.99,,,-99.99,,2013-07-10 21:11:00,
2013-07-10 15:52:00,80.0,52.0,-100.00,SSW,205,6.0,7.0,37,-99.99,,,-99.99,,2013-07-10 21:52:00,
2013-07-10 16:01:00,80.0,52.0,-100.00,ESE,115,2.0,12.0,37,-99.99,,,-99.99,,2013-07-10 22:01:00,
2013-07-10 16:11:00,80.0,52.0,-100.00,ESE,115,2.0,12.0,37,-99.99,,,-99.99,,2013-07-10 22:11:00,
2013-07-10 16:42:00,80.0,53.0,-100.00,SSE,165,9.0,11.0,40,-99.99,,,-99.99,,2013-07-10 22:42:00,
2013-07-10 16:53:00,78.0,53.0,-100.00,ESE,120,7.0,11.0,42,-99.99,,,-99.99,,2013-07-10 22:53:00,
2013-07-10 17:01:00,77.0,53.0,-100.00,SE,130,6.0,9.0,43,-99.99,,,-99.99,,2013-07-10 23:01:00,
2013-07-10 17:11:00,77.0,53.0,-100.00,SE,130,6.0,9.0,43,-99.99,,,-99.99,,2013-07-10 23:11:00,
2013-07-10 17:52:00,79.0,54.0,-100.00,SE,125,7.0,10.0,41,-99.99,,,-99.99,,2013-07-10 23:52:00,
2013-07-10 18:01:00,80.0,54.0,-100.00,SE,125,8.0,11.0,41,-99.99,,,-99.99,,2013-07-11 00:01:00,
2013-07-10 18:52:00,79.0,55.0,-100.00,ESE,110,9.0,12.0,43,-99.99,,,-99.99,,2013-07-11 00:52:00,
2013-07-10 19:01:00,79.0,55.0,-100.00,SE,125,7.0,12.0,44,-99.99,,,-99.99,,2013-07-11 01:01:00,
2013-07-10 19:11:00,79.0,55.0,-100.00,SE,125,7.0,12.0,44,-99.99,,,-99.99,,2013-07-11 01:11:00,
2013-07-10 20:11:00,76.0,55.0,-100.00,SE,125,7.0,10.0,49,-99.99,,,-99.99,,2013-07-11 02:11:00,
2013-07-10 20:43:00,73.0,57.0,-100.00,ESE,120,5.0,7.0,56,-99.99,,,-99.99,,2013-07-11 02:43:00,
2013-07-10 20:53:00,72.0,58.0,-100.00,SE,125,7.0,9.0,62,-99.99,,,-99.99,,2013-07-11 02:53:00,
2013-07-10 21:01:00,71.0,59.0,-100.00,SE,125,7.0,9.0,65,-99.99,,,-99.99,,2013-07-11 03:01:00,
2013-07-10 21:11:00,71.0,59.0,-100.00,SE,125,7.0,9.0,65,-99.99,,,-99.99,,2013-07-11 03:11:00,
2013-07-10 21:42:00,68.0,59.0,-100.00,SE,125,7.0,7.0,72,-99.99,,,-99.99,,2013-07-11 03:42:00,
2013-07-10 21:52:00,67.0,59.0,-100.00,ESE,120,4.0,7.0,75,-99.99,,,-99.99,,2013-07-11 03:52:00,
2013-07-10 22:01:00,67.0,59.0,-100.00,SE,125,9.0,9.0,76,-99.99,,,-99.99,,2013-07-11 04:01:00,
2013-07-10 22:12:00,67.0,59.0,-100.00,SE,125,9.0,9.0,76,-99.99,,,-99.99,,2013-07-11 04:12:00,
2013-07-10 22:42:00,66.0,58.0,-100.00,ESE,120,6.0,8.0,76,-99.99,,,-99.99,,2013-07-11 04:42:00,
2013-07-10 22:53:00,67.0,58.0,-100.00,ESE,115,7.0,9.0,73,-99.99,,,-99.99,,2013-07-11 04:53:00,
2013-07-10 23:01:00,66.0,58.0,-100.00,East,100,6.0,8.0,74,-99.99,,,-99.99,,2013-07-11 05:01:00,
2013-07-10 23:12:00,66.0,58.0,-100.00,East,100,6.0,8.0,74,-99.99,,,-99.99,,2013-07-11 05:12:00,
2013-07-10 23:32:00,64.0,57.0,-100.00,SE,125,7.0,9.0,77,-99.99,,,-99.99,,2013-07-11 05:32:00,
2013-07-10 23:43:00,64.0,57.0,-100.00,SE,125,7.0,9.0,77,-99.99,,,-99.99,,2013-07-11 05:43:00,
2013-07-10 23:52:00,65.0,58.0,-100.00,SE,140,9.0,12.0,76,-99.99,,,-99.99,,2013-07-11 05:52:00,